User: anonymous   Login
Location: Eurasberg
(48.3353°N, 11.0839°E)
Time: 11:37:49
(UTC+00:00)
Language:

ATLAS 2AS CENTAUR R/B - Orbit

View from above orbital plane
View from above orbital plane
View from above satellite
View from above satellite

Ground track
Ground track

The orbit is defined by the following mean orbital elements,

1 28096U          26064.94287402 +.00000000 +00000-0 +86670-4 0 00003
2 28096  63.6796 295.7851 0073468 118.0238 242.8246 13.41062453    09
Epoch (UTC): 05 March 2026 22:37:44
Eccentricity: 0.0073468
inclination: 63.6796°
perigee height: 1050 km
apogee height: 1160 km
right ascension of ascending node: 295.7851°
argument of perigee: 118.0238°
revolutions per day: 13.41062453
mean anomaly at epoch: 242.8246°

The dashed part of the orbit path shows where the satellite is in the earth's shadow,  

DLR